Weather History for Gwinn, MI

Change the Weather History Date:

Thursday, September 26, 2013

  Actual Average (KESC) Record (KESC)
Temperature  
Mean Temperature 53 °F -  
Max Temperature 71 °F 60 °F 73 °F (2000)
Min Temperature 35 °F 45 °F 33 °F (1957)
Degree Days  
Heating Degree Days 12    
Growing Degree Days 3 (Base 50)    
Moisture  
Dew Point 45 °F    
Average Humidity 85    
Maximum Humidity 100    
Minimum Humidity 43    
Precipitation  
Precipitation 0.00 in - - ()
Sea Level Pressure  
Sea Level Pressure 30.08 in    
Wind  
Wind Speed 2 mph (South)    
Max Wind Speed 14 mph    
Max Gust Speed 18 mph    
Visibility 6 miles    
Events Fog    
Averages and records for this station are not official NWS values.
T = Trace of Precipitation, MM = Missing Value Source: NWS Daily Summary

Daily Weather History Graph

Daily Weather History Graph

Search for Another Location

Airport:

Trip Planner

Search our weather history database for the weather conditions in past years. The results will help you decide how hot, cold, wet, or windy it might be!

Date:

Astronomy

Sep. 26, 2013 Rise Set
Actual Time 7:41 AM EDT 7:38 PM EDT
Civil Twilight 7:11 AM EDT 8:08 PM EDT
Nautical Twilight 6:36 AM EDT 8:43 PM EDT
Astronomical Twilight 6:00 AM EDT 9:19 PM EDT
Moon No Moon Rise 2:51 PM EDT (9/26)
Length of Visible Light 12h 56m
Length of Day
11h 56m
Waning Gibbous, 55% of the Moon is Illuminated
Sep 26
Waning Gibbous
Sep 26
Last Quarter
Oct 4
New
Oct 11
First Quarter
Oct 18
Full

Hourly Weather History & Observations

Time (EDT) Temp. Dew Point Humidity Pressure Visibility Wind Dir Wind Speed Gust Speed Precip Events Conditions
12:17 AM 46.4 °F 44.8 °F 94% 30.04 in 7.0 mi Calm Calm - N/A   Clear
12:36 AM 47.3 °F 46.0 °F 95% 30.04 in 10.0 mi Calm Calm - N/A   Clear
12:56 AM 45.7 °F 44.1 °F 94% 30.04 in 10.0 mi Calm Calm - N/A   Clear
1:17 AM 44.8 °F 43.7 °F 96% 30.05 in 2.0 mi Calm Calm - N/A   Clear
1:37 AM 44.2 °F 43.2 °F 96% 30.05 in 1.0 mi Calm Calm - N/A   Mist
1:56 AM 44.1 °F 43.2 °F 97% 30.05 in 1.0 mi Calm Calm - N/A   Mist
2:17 AM 41.9 °F 41.0 °F 97% 30.05 in 0.8 mi Calm Calm - N/A   Mist
2:36 AM 44.1 °F 43.2 °F 97% 30.06 in 0.5 mi Calm Calm - N/A Fog Fog
2:57 AM 41.4 °F 40.3 °F 96% 30.06 in 2.5 mi Calm Calm - N/A   Clear
3:16 AM 40.3 °F 39.2 °F 96% 30.06 in 1.0 mi Calm Calm - N/A   Mostly Cloudy
3:37 AM 38.3 °F 37.4 °F 97% 30.07 in 1.5 mi Calm Calm - N/A   Mostly Cloudy
3:57 AM 38.5 °F 37.8 °F 97% 30.07 in 0.2 mi Calm Calm - N/A Fog Fog
4:16 AM 38.1 °F 37.4 °F 97% 30.07 in 0.8 mi Calm Calm - N/A   Overcast
4:37 AM 38.1 °F 37.4 °F 97% 30.07 in 0.2 mi Calm Calm - N/A Fog Fog
4:56 AM 36.7 °F 36.1 °F 98% 30.08 in 0.2 mi Calm Calm - N/A Fog Fog
5:17 AM 36.5 °F 36.0 °F 98% 30.08 in 0.5 mi Calm Calm - N/A Fog Fog
5:36 AM 36.0 °F 35.6 °F 99% 30.09 in 0.5 mi Calm Calm - N/A Fog Fog
5:57 AM 36.0 °F 35.6 °F 99% 30.09 in 0.5 mi Calm Calm - N/A Fog Fog
6:55 AM 35.6 °F 35.6 °F 100% 30.09 in 0.2 mi Calm Calm - N/A Fog Fog
7:55 AM 35.6 °F 35.6 °F 100% 30.10 in 0.2 mi Calm Calm - N/A Fog Fog
8:50 AM 41.0 °F 39.2 °F 93% 30.10 in 0.2 mi Calm Calm - N/A Fog Fog
9:55 AM 44.6 °F 44.6 °F 100% 30.11 in 0.2 mi Calm Calm - N/A Fog Fog
10:25 AM 50.0 °F 48.2 °F 94% 30.11 in 5.0 mi Calm Calm - N/A   Clear
10:55 AM 55.4 °F 51.8 °F 88% 30.11 in 10.0 mi Calm Calm - N/A   Clear
11:50 AM 60.8 °F 50.0 °F 68% 30.11 in 10.0 mi South 10.4 mph - N/A   Clear
12:50 PM 66.2 °F 50.0 °F 56% 30.09 in 10.0 mi South 12.7 mph 18.4 mph N/A   Clear
1:50 PM 68.0 °F 51.8 °F 56% 30.10 in 10.0 mi South 8.1 mph 17.3 mph N/A   Clear
2:50 PM 69.8 °F 51.8 °F 53% 30.09 in 10.0 mi SSW 11.5 mph - N/A   Clear
3:50 PM 71.6 °F 50.0 °F 46% 30.08 in 10.0 mi South 11.5 mph - N/A   Clear
4:50 PM 71.6 °F 48.2 °F 43% 30.08 in 10.0 mi South 13.8 mph - N/A   Clear
5:50 PM 69.8 °F 50.0 °F 49% 30.08 in 10.0 mi South 12.7 mph - N/A   Clear
6:50 PM 66.2 °F 48.2 °F 52% 30.09 in 10.0 mi South 10.4 mph - N/A   Clear
7:50 PM 66.2 °F 50.0 °F 56% 30.09 in 10.0 mi South 8.1 mph - N/A   Clear
8:50 PM 57.2 °F 50.0 °F 77% 30.10 in 10.0 mi South 8.1 mph - N/A   Clear
9:45 PM 55.4 °F 50.0 °F 82% 30.10 in 10.0 mi South 9.2 mph - N/A   Clear
10:16 PM 53.8 °F 50.4 °F 88% 30.11 in 10.0 mi SSW 9.2 mph - N/A   Clear
10:37 PM 53.2 °F 50.4 °F 90% 30.11 in 10.0 mi South 8.1 mph - N/A   Clear
10:57 PM 52.9 °F 50.2 °F 91% 30.11 in 10.0 mi South 8.1 mph - N/A   Clear
11:16 PM 52.9 °F 50.7 °F 92% 30.10 in 10.0 mi South 10.4 mph - N/A   Clear
11:37 PM 51.8 °F 50.2 °F 94% 30.11 in 10.0 mi South 9.2 mph - N/A   Clear
11:57 PM 51.8 °F 50.5 °F 95% 30.11 in 10.0 mi South 8.1 mph - N/A   Clear